Regional Weather Roundup
Issued by NWS

Home | Current Version | Previous Version | Graphics & Text | Print | Product List | Glossary On
Versions: 1 2 3 4 5 6 7 8 9 10 11 12 13 14 15 16 17 18 19 20 21 22 23 24 25 26 27 28 29 30 31 32 33 34 35 36 37 38 39 40 41 42 43 44 45 46 47 48 49 50
000
ASUS43 KDTX 240010
RWRMI
MICHIGAN HOURLY REGIONAL WEATHER ROUNDUP
NATIONAL WEATHER SERVICE DETROIT/PONTIAC MI
800 PM EDT FRI JUN 23 2017

NOTE: "FAIR" INDICATES FEW OR NO CLOUDS BELOW 12,000 FEET WITH NO
SIGNIFICANT WEATHER AND/OR OBSTRUCTION TO VISIBILITY.

MIZ047>049-052>055-059>063-066>070-074>076-081>083-240100-
SOUTHEAST LOWER MICHIGAN

CITY           SKY/WX    TMP DP  RH WIND       PRES   REMARKS
ADRIAN         CLOUDY    73  61  65 NW7       29.67R
6HR MIN TEMP:  73; 6HR MAX TEMP:  78;

ALMA           SUNNY     74  48  40 W8        29.67R
ANN ARBOR      CLOUDY    73  62  68 W7        29.65R
BAD AXE        CLOUDY    74  56  52 NW8       29.63R
6HR MIN TEMP:  68; 6HR MAX TEMP:  76;

CARO           CLOUDY    75  60  60 NW6       29.63R
DETROIT CITY   CLOUDY    76  61  59 NW12G20   29.62R
6HR MIN TEMP:  76; 6HR MAX TEMP:  80;

DETROIT        CLOUDY    75  63  66 NW9       29.64R
6HR MIN TEMP:  75; 6HR MAX TEMP:  81;

FLINT          CLOUDY    75  57  53 W13       29.65R
6HR MIN TEMP:  70; 6HR MAX TEMP:  77;

GROSSE ILE     CLOUDY    75  63  66 NW8       29.63R
6HR MIN TEMP:  73; 6HR MAX TEMP:  80;

HILLSDALE      CLOUDY    72  54  53 NW16      29.69S
HOWELL         MOSUNNY   74  55  50 NW12G17   29.67R
6HR MIN TEMP:  72; 6HR MAX TEMP:  76; 6HR PCP:  0.11;


CITY           SKY/WX    TMP DP  RH WIND       PRES   REMARKS
JACKSON        CLOUDY    73  59  61 NW12      29.68R
6HR MIN TEMP:  72; 6HR MAX TEMP:  75;

LAMBERTVILLE   CLOUDY    74  64  71 W7        29.65R
6HR MIN TEMP:  73; 6HR MAX TEMP:  77;

LANSING        PTSUNNY   76  50  40 W12       29.68R
6HR MIN TEMP:  75; 6HR MAX TEMP:  80;

LAPEER         FAIR      73  61  65 W5        29.64R
6HR MIN TEMP:  70; 6HR MAX TEMP:  76; 6HR PCP:  0.01;

MASON          PTSUNNY   74  54  48 NW10      29.68R
MONROE         PTSUNNY   74  67  80 NW3       29.64R
6HR MIN TEMP:  72; 6HR MAX TEMP:  79; 6HR PCP:  0.11;

MT. CLEMENS    CLOUDY    75  63  67 W9        29.61R
6HR MIN TEMP:  75; 6HR MAX TEMP:  77; 6HR PCP: TRACE;

PONTIAC        CLOUDY    73  60  63 NW8       29.64R
6HR MIN TEMP:  73; 6HR MAX TEMP:  78; 6HR PCP: TRACE;

PORT HOPE        N/A     69  65  86 SE5       29.60R
6HR MIN TEMP:  68; 6HR MAX TEMP:  74; 6HR PCP:  0.01;

PORT HURON     CLOUDY    72  57  60 NW5       29.62R
TRI CITIES     CLOUDY    75  54  47 W13       29.64R
6HR MIN TEMP:  74; 6HR MAX TEMP:  79;

MIDLAND        FAIR      77  49  37 W3        29.64R
6HR MIN TEMP:  75; 6HR MAX TEMP:  79;

TROY           MOSUNNY   76  58  54 W8        29.65
SAGINAW HB     CLOUDY    77  50  38 W10       29.63R
$$
MIZ043>046-050>051-056>058-064>065-071>073-077>080-240100-
SOUTHWEST LOWER MICHIGAN

CITY           SKY/WX    TMP DP  RH WIND       PRES   REMARKS
BATTLE CREEK   CLOUDY    74  52  46 W8        29.71R
6HR MIN TEMP:  73; 6HR MAX TEMP:  76;

BENTON HARBOR  SUNNY     75  51  43 SW6       29.70F
6HR MIN TEMP:  69; 6HR MAX TEMP:  75;

BIG RAPIDS     MOSUNNY   73  45  37 W5        29.67S
6HR MIN TEMP:  73; 6HR MAX TEMP:  75;

COLDWATER      CLOUDY    73  51  45 NW9       29.71R
6HR MIN TEMP:  71; 6HR MAX TEMP:  75;

FREMONT        FAIR      73  46  37 W5        29.68R
6HR MIN TEMP:  73; 6HR MAX TEMP:  78;

HOLLAND        SUNNY     71  60  68 W10       29.70S
6HR MIN TEMP:  70; 6HR MAX TEMP:  76;

GRAND RAPIDS   PTSUNNY   76  46  34 W10       29.68R
6HR MIN TEMP:  74; 6HR MAX TEMP:  80;

IONIA          FAIR      75  45  33 W7        29.67S
6HR MIN TEMP:  75; 6HR MAX TEMP:  78;

KALAMAZOO      SUNNY     74  47  38 NW8       29.71R
6HR MIN TEMP:  73; 6HR MAX TEMP:  77;

LUDINGTON      CLOUDY    67  58  72 W5        29.67R
6HR MIN TEMP:  67; 6HR MAX TEMP:  74;

MARSHALL       CLOUDY    73  56  54 W9G16     29.69S
6HR MIN TEMP:  73; 6HR MAX TEMP:  77;

MOUNT PLEASANT SUNNY     75  45  35 W8        29.66R
6HR MIN TEMP:  74; 6HR MAX TEMP:  78;

MUSKEGON       PTSUNNY   68  62  81 SW9       29.69S
6HR MIN TEMP:  68; 6HR MAX TEMP:  79;

SOUTH HAVEN    MOSUNNY   73  60  63 SW3       29.71R
$$
MIZ016>042-240100-
NORTHERN LOWER MICHIGAN

CITY           SKY/WX    TMP DP  RH WIND       PRES   REMARKS
ALPENA         SUNNY     76  46  34 NW6       29.61R
6HR MIN TEMP:  75; 6HR MAX TEMP:  79;

BEAVER ISLAND  PTSUNNY   66  50  55 N6        29.65R
6HR MIN TEMP:  66; 6HR MAX TEMP:  74;

BELLAIRE       CLOUDY    73  49  42 CALM      29.62S
6HR MIN TEMP:  73; 6HR MAX TEMP:  76;

CADILLAC       SUNNY     72  48  42 W9        29.67R
CHARLEVOIX     CLOUDY    66  53  63 NW7       29.67R
6HR MIN TEMP:  66; 6HR MAX TEMP:  75;

FRANKFORT      CLOUDY    67  55  64 W5        29.65S
GAYLORD        SUNNY     72  44  36 W9G18     29.64R
6HR MIN TEMP:  72; 6HR MAX TEMP:  76;

GRAYLING       SUNNY     73  46  38 W9        29.65S
6HR MIN TEMP:  73; 6HR MAX TEMP:  76;

HARBOR SPRINGS MOSUNNY   69  54  60 N9        29.63R
HOUGHTON LAKE  SUNNY     74  46  36 W9        29.65S
6HR MIN TEMP:  74; 6HR MAX TEMP:  77;

MANISTEE       MOSUNNY   70  56  61 SW12      29.65R
OSCODA         SUNNY     73  60  65 S5        29.60S
6HR MIN TEMP:  70; 6HR MAX TEMP:  78;

PELLSTON       MOSUNNY   69  52  54 N14       29.64R
6HR MIN TEMP:  69; 6HR MAX TEMP:  78;

ROGERS CITY    MOSUNNY   64  55  72 N9G18     29.63R
TRAVERSE CITY  PTSUNNY   75  48  38 W9        29.61R
6HR MIN TEMP:  75; 6HR MAX TEMP:  80;

$$
MIZ007>008-015-240100-
EASTERN UPPER MICHIGAN

CITY           SKY/WX    TMP DP  RH WIND       PRES   REMARKS
KINROSS        PTSUNNY   64  48  56 NW16G22   29.63S
6HR MIN TEMP:  63; 6HR MAX TEMP:  75;

MACKINAC ISLAN CLOUDY    64  51  64 N6        29.63S
6HR MIN TEMP:  64; 6HR MAX TEMP:  69;

NEWBERRY       PTSUNNY   64  47  54 NW10G18   29.65R
6HR MIN TEMP:  63; 6HR MAX TEMP:  75;

S. S. MARIE    MOSUNNY   62  47  57 NW10G16   29.64R
6HR MIN TEMP:  62; 6HR MAX TEMP:  77;

MUNISING         N/A     61  50  67 NW9       29.65R
6HR MIN TEMP:  61; 6HR MAX TEMP:  64;

$$
MIZ004>006-011>014-085-240100-
CENTRAL UPPER MICHIGAN

CITY           SKY/WX    TMP DP  RH WIND       PRES   REMARKS
MANISTIQUE     MOSUNNY   65  49  55 N10       29.64S
6HR MIN TEMP:  64; 6HR MAX TEMP:  73;

ESCANABA       MOSUNNY   72  48  42 W14       29.65R
6HR MIN TEMP:  72; 6HR MAX TEMP:  79;

MENOMINEE      PTSUNNY   71  51  49 CALM      29.68R
6HR MIN TEMP:  71; 6HR MAX TEMP:  78;

SAWYER-GWINN   MOSUNNY   68  46  45 NW16G23   29.67R
$$
MIZ001>003-009>011-084-240100-
WESTERN UPPER MICHIGAN

CITY           SKY/WX    TMP DP  RH WIND       PRES   REMARKS
IRON MOUNTAIN  PTSUNNY   68  45  43 NW10      29.68R
6HR MIN TEMP:  68; 6HR MAX TEMP:  76;

HOUGHTON       CLOUDY    62  47  57 W18G25    29.67R
6HR MIN TEMP:  62; 6HR MAX TEMP:  67;

COPPER HARBOR    N/A     65  49  56 N10G21    29.64R
6HR MIN TEMP:  62; 6HR MAX TEMP:  67;

IRONWOOD       SUNNY     66  50  56 NW7       29.73R
6HR MIN TEMP:  63; 6HR MAX TEMP:  67;

$$

ABBREVIATIONS USED IN REMARKS
   TC - TEMPERATURE IN CELSIUS
  WCI - WIND CHILL INDEX
   HX - HEAT INDEX
  VSB - VISIBILITY





USA.gov is the U.S. government's official web portal to all federal, state and local government web resources and services.